Time,TemperatureF,DewpointF,PressureIn,WindDirection,WindDirectionDegrees,WindSpeedMPH,WindSpeedGustMPH,Humidity,HourlyPrecipIn,Conditions,Clouds,dailyrainin,SoftwareType,DateUTC
2013-01-15 00:00:00,24.9,-0.8,31.26,SW,225,5.3,10.5,32,0.00,,,0.00,WUHU216HW,2013-01-15 07:00:00,
2013-01-15 00:05:00,24.9,-0.8,31.26,WSW,248,9.3,10.5,32,0.00,,,0.00,WUHU216HW,2013-01-15 07:05:00,
2013-01-15 00:10:00,24.9,-0.8,31.26,WSW,248,5.5,9.3,32,0.00,,,0.00,WUHU216HW,2013-01-15 07:10:00,
2013-01-15 00:15:00,24.4,-0.6,31.26,WSW,248,9.6,9.6,33,0.00,,,0.00,WUHU216HW,2013-01-15 07:15:00,
2013-01-15 00:20:00,24.0,-1.0,31.26,WSW,248,6.4,9.8,33,0.00,,,0.00,WUHU216HW,2013-01-15 07:20:00,
2013-01-15 00:25:00,24.0,-1.0,31.26,WSW,248,4.4,9.8,33,0.00,,,0.00,WUHU216HW,2013-01-15 07:25:00,
2013-01-15 00:30:00,24.2,-0.6,31.26,SW,225,10.2,10.2,33,0.00,,,0.00,WUHU216HW,2013-01-15 07:30:00,
2013-01-15 00:35:00,24.4,-0.6,31.26,SW,225,3.8,12.3,33,0.00,,,0.00,WUHU216HW,2013-01-15 07:35:00,
2013-01-15 00:40:00,24.0,-0.4,31.26,WSW,248,9.6,12.3,34,0.00,,,0.00,WUHU216HW,2013-01-15 07:40:00,
2013-01-15 00:45:00,24.4,0.0,31.27,SSW,203,8.5,10.0,34,0.00,,,0.00,WUHU216HW,2013-01-15 07:45:00,
2013-01-15 00:50:00,24.0,-1.0,31.26,WSW,248,4.6,10.0,34,0.00,,,0.00,WUHU216HW,2013-01-15 07:50:00,
2013-01-15 00:56:00,24.0,-1.0,31.26,SW,225,8.9,8.9,33,0.00,,,0.00,WUHU216HW,2013-01-15 07:56:00,
2013-01-15 01:01:00,24.0,-1.0,31.26,SW,225,3.5,8.9,33,0.00,,,0.00,WUHU216HW,2013-01-15 08:01:00,
2013-01-15 01:06:00,24.0,-0.4,31.26,SW,225,3.5,9.3,34,0.00,,,0.00,WUHU216HW,2013-01-15 08:06:00,
2013-01-15 01:11:00,23.9,-0.5,31.26,WSW,248,5.1,10.5,34,0.00,,,0.00,WUHU216HW,2013-01-15 08:11:00,
2013-01-15 01:16:00,23.9,-0.5,31.26,WSW,248,5.8,10.5,34,0.00,,,0.00,WUHU216HW,2013-01-15 08:16:00,
2013-01-15 01:21:00,23.9,-1.1,31.27,WSW,248,13.4,13.4,33,0.00,,,0.00,WUHU216HW,2013-01-15 08:21:00,
2013-01-15 01:26:00,24.0,-1.0,31.27,SW,225,10.9,13.6,33,0.00,,,0.00,WUHU216HW,2013-01-15 08:26:00,
2013-01-15 01:31:00,24.0,-1.0,31.26,WSW,248,6.9,13.6,33,0.00,,,0.00,WUHU216HW,2013-01-15 08:31:00,
2013-01-15 01:36:00,23.9,-1.1,31.27,SW,225,7.8,12.0,33,0.00,,,0.00,WUHU216HW,2013-01-15 08:36:00,
2013-01-15 01:41:00,23.9,-1.1,31.26,SW,225,14.9,14.9,33,0.00,,,0.00,WUHU216HW,2013-01-15 08:41:00,
2013-01-15 01:46:00,23.9,-1.1,31.27,SW,225,6.9,14.9,33,0.00,,,0.00,WUHU216HW,2013-01-15 08:46:00,
2013-01-15 01:51:00,23.7,-1.3,31.27,SW,225,9.8,10.9,33,0.00,,,0.00,WUHU216HW,2013-01-15 08:51:00,
2013-01-15 01:56:00,23.7,-1.3,31.27,SW,225,14.5,14.9,33,0.00,,,0.00,WUHU216HW,2013-01-15 08:56:00,
2013-01-15 02:01:00,23.7,-1.3,31.27,SW,225,5.5,14.9,33,0.00,,,0.00,WUHU216HW,2013-01-15 09:01:00,
2013-01-15 02:06:00,23.5,-1.4,31.27,SSW,203,10.5,14.3,33,0.00,,,0.00,WUHU216HW,2013-01-15 09:06:00,
2013-01-15 02:11:00,23.3,-1.6,31.27,SW,225,3.8,14.3,33,0.00,,,0.00,WUHU216HW,2013-01-15 09:11:00,
2013-01-15 02:16:00,23.0,-1.3,31.27,SW,225,7.8,12.0,34,0.00,,,0.00,WUHU216HW,2013-01-15 09:16:00,
2013-01-15 02:22:00,22.8,-1.5,31.27,SW,225,2.9,12.0,34,0.00,,,0.00,WUHU216HW,2013-01-15 09:22:00,
2013-01-15 02:27:00,22.8,-1.5,31.27,SW,225,11.8,12.3,34,0.00,,,0.00,WUHU216HW,2013-01-15 09:27:00,
2013-01-15 02:32:00,22.8,-1.5,31.28,SSW,203,5.3,13.6,34,0.00,,,0.00,WUHU216HW,2013-01-15 09:32:00,
2013-01-15 02:37:00,22.6,-1.0,31.28,SSW,203,13.4,13.6,35,0.00,,,0.00,WUHU216HW,2013-01-15 09:37:00,
2013-01-15 02:42:00,22.8,-0.9,31.28,SW,225,15.6,15.6,35,0.00,,,0.00,WUHU216HW,2013-01-15 09:42:00,
2013-01-15 02:47:00,22.6,-1.0,31.28,SW,225,13.6,15.6,35,0.00,,,0.00,WUHU216HW,2013-01-15 09:47:00,
2013-01-15 02:52:00,22.6,-1.0,31.28,SSW,203,10.2,13.8,35,0.00,,,0.00,WUHU216HW,2013-01-15 09:52:00,
2013-01-15 02:57:00,22.6,-1.0,31.28,SW,225,14.5,14.5,35,0.00,,,0.00,WUHU216HW,2013-01-15 09:57:00,
2013-01-15 03:02:00,22.6,-1.0,31.28,SSW,203,8.0,14.5,35,0.00,,,0.00,WUHU216HW,2013-01-15 10:02:00,
2013-01-15 03:07:00,22.6,-1.0,31.28,WSW,248,7.6,13.6,35,0.00,,,0.00,WUHU216HW,2013-01-15 10:07:00,
2013-01-15 03:12:00,22.4,-1.2,31.29,SW,225,4.9,13.6,35,0.00,,,0.00,WUHU216HW,2013-01-15 10:12:00,
2013-01-15 03:17:00,22.2,-1.4,31.29,SSW,203,10.9,11.8,35,0.00,,,0.00,WUHU216HW,2013-01-15 10:17:00,
2013-01-15 03:22:00,22.1,-0.9,31.29,SW,225,5.1,10.9,36,0.00,,,0.00,WUHU216HW,2013-01-15 10:22:00,
2013-01-15 03:28:00,21.9,-1.1,31.29,SW,225,3.3,17.0,36,0.00,,,0.00,WUHU216HW,2013-01-15 10:28:00,
2013-01-15 03:33:00,21.7,-1.2,31.29,SW,225,12.9,17.0,36,0.00,,,0.00,WUHU216HW,2013-01-15 10:33:00,
2013-01-15 03:38:00,21.3,-1.6,31.28,SSW,203,4.0,12.9,36,0.00,,,0.00,WUHU216HW,2013-01-15 10:38:00,
2013-01-15 03:43:00,21.3,-0.9,31.29,SSW,203,5.5,10.0,37,0.00,,,0.00,WUHU216HW,2013-01-15 10:43:00,
2013-01-15 03:48:00,21.3,-0.9,31.29,SSW,203,13.6,13.6,37,0.00,,,0.00,WUHU216HW,2013-01-15 10:48:00,
2013-01-15 03:53:00,21.3,-0.9,31.30,South,180,13.8,13.8,37,0.00,,,0.00,WUHU216HW,2013-01-15 10:53:00,
2013-01-15 03:58:00,21.0,-1.3,31.30,SSW,203,7.3,13.8,37,0.00,,,0.00,WUHU216HW,2013-01-15 10:58:00,
2013-01-15 04:03:00,20.8,-0.8,31.30,SSW,203,5.8,9.6,38,0.00,,,0.00,WUHU216HW,2013-01-15 11:03:00,
2013-01-15 04:08:00,20.8,-0.8,31.30,WSW,248,8.7,8.9,38,0.00,,,0.00,WUHU216HW,2013-01-15 11:08:00,
2013-01-15 04:13:00,21.0,-0.7,31.29,SW,225,7.6,12.0,38,0.00,,,0.00,WUHU216HW,2013-01-15 11:13:00,
2013-01-15 04:18:00,21.0,-0.7,31.29,WSW,248,11.4,12.0,38,0.00,,,0.00,WUHU216HW,2013-01-15 11:18:00,
2013-01-15 04:23:00,21.0,0.0,31.30,SW,225,13.6,13.6,39,0.00,,,0.00,WUHU216HW,2013-01-15 11:23:00,
2013-01-15 04:28:00,21.0,0.0,31.30,WSW,248,12.5,13.6,39,0.00,,,0.00,WUHU216HW,2013-01-15 11:28:00,
2013-01-15 04:33:00,21.0,0.0,31.29,SW,225,8.7,12.5,39,0.00,,,0.00,WUHU216HW,2013-01-15 11:33:00,
2013-01-15 04:38:00,20.8,-0.2,31.29,SW,225,7.8,10.7,39,0.00,,,0.00,WUHU216HW,2013-01-15 11:38:00,
2013-01-15 04:43:00,20.8,-0.2,31.29,WSW,248,9.3,13.4,39,0.00,,,0.00,WUHU216HW,2013-01-15 11:43:00,
2013-01-15 04:48:00,20.8,0.5,31.29,SW,225,7.8,13.4,40,0.00,,,0.00,WUHU216HW,2013-01-15 11:48:00,
2013-01-15 04:53:00,21.0,0.5,31.29,SW,225,8.0,16.1,40,0.00,,,0.00,WUHU216HW,2013-01-15 11:53:00,
2013-01-15 04:58:00,21.0,0.5,31.29,SW,225,10.7,16.1,40,0.00,,,0.00,WUHU216HW,2013-01-15 11:58:00,
2013-01-15 05:03:00,20.8,0.3,31.29,SSW,203,7.3,14.0,40,0.00,,,0.00,WUHU216HW,2013-01-15 12:03:00,
2013-01-15 05:08:00,20.6,0.1,31.30,SSW,203,7.3,14.0,40,0.00,,,0.00,WUHU216HW,2013-01-15 12:08:00,
2013-01-15 05:13:00,20.4,0.0,31.30,SSW,203,9.6,11.4,40,0.00,,,0.00,WUHU216HW,2013-01-15 12:13:00,
2013-01-15 05:19:00,20.4,0.0,31.29,SW,225,10.5,12.3,40,0.00,,,0.00,WUHU216HW,2013-01-15 12:19:00,
2013-01-15 05:24:00,20.8,0.3,31.30,SW,225,5.3,13.1,40,0.00,,,0.00,WUHU216HW,2013-01-15 12:24:00,
2013-01-15 05:29:00,21.0,0.5,31.30,WSW,248,4.9,15.4,40,0.00,,,0.00,WUHU216HW,2013-01-15 12:29:00,
2013-01-15 05:34:00,21.0,0.0,31.31,SW,225,11.1,15.4,39,0.00,,,0.00,WUHU216HW,2013-01-15 12:34:00,
2013-01-15 05:39:00,21.0,0.0,31.30,SW,225,8.9,13.8,39,0.00,,,0.00,WUHU216HW,2013-01-15 12:39:00,
2013-01-15 05:44:00,21.0,0.0,31.30,SW,225,7.3,11.4,39,0.00,,,0.00,WUHU216HW,2013-01-15 12:44:00,
2013-01-15 05:49:00,21.0,0.0,31.30,SSW,203,10.5,11.4,39,0.00,,,0.00,WUHU216HW,2013-01-15 12:49:00,
2013-01-15 05:54:00,21.0,0.0,31.29,SSW,203,8.5,14.0,39,0.00,,,0.00,WUHU216HW,2013-01-15 12:54:00,
2013-01-15 05:59:00,21.0,0.0,31.29,SW,225,13.8,14.0,39,0.00,,,0.00,WUHU216HW,2013-01-15 12:59:00,
2013-01-15 06:04:00,21.0,0.0,31.30,SSW,203,3.1,13.8,39,0.00,,,0.00,WUHU216HW,2013-01-15 13:04:00,
2013-01-15 06:09:00,20.8,-0.2,31.30,SSW,203,12.7,13.1,39,0.00,,,0.00,WUHU216HW,2013-01-15 13:09:00,
2013-01-15 06:15:00,20.8,-0.2,31.30,SW,225,7.6,13.1,39,0.00,,,0.00,WUHU216HW,2013-01-15 13:15:00,
2013-01-15 06:20:00,20.6,0.1,31.30,WSW,248,4.4,12.9,40,0.00,,,0.00,WUHU216HW,2013-01-15 13:20:00,
2013-01-15 06:25:00,20.4,-0.5,31.29,SW,225,8.7,10.2,39,0.00,,,0.00,WUHU216HW,2013-01-15 13:25:00,
2013-01-15 06:30:00,20.8,-0.4,31.30,SW,225,7.3,11.1,39,0.00,,,0.00,WUHU216HW,2013-01-15 13:30:00,
2013-01-15 06:35:00,20.4,-0.4,31.30,SSW,203,4.4,11.4,39,0.00,,,0.00,WUHU216HW,2013-01-15 13:35:00,
2013-01-15 06:40:00,20.3,-0.5,31.31,SSW,203,6.2,11.8,39,0.00,,,0.00,WUHU216HW,2013-01-15 13:40:00,
2013-01-15 06:45:00,20.3,-0.7,31.31,North,0,0.0,11.8,39,0.00,,,0.00,WUHU216HW,2013-01-15 13:45:00,
2013-01-15 06:50:00,20.1,-0.9,31.30,SSW,203,3.5,8.5,39,0.00,,,0.00,WUHU216HW,2013-01-15 13:50:00,
2013-01-15 06:55:00,19.9,-1.0,31.31,SW,225,7.1,7.6,39,0.00,,,0.00,WUHU216HW,2013-01-15 13:55:00,
2013-01-15 07:00:00,20.3,-0.5,31.31,SSW,203,7.6,12.5,39,0.00,,,0.00,WUHU216HW,2013-01-15 14:00:00,
2013-01-15 07:05:00,20.8,-0.8,31.31,SW,225,7.3,12.5,38,0.00,,,0.00,WUHU216HW,2013-01-15 14:05:00,
2013-01-15 07:10:00,21.0,-0.7,31.32,SSW,203,10.9,11.1,38,0.00,,,0.00,WUHU216HW,2013-01-15 14:10:00,
2013-01-15 07:15:00,21.0,-0.7,31.31,SW,225,5.3,10.9,38,0.00,,,0.00,WUHU216HW,2013-01-15 14:15:00,
2013-01-15 07:20:00,21.3,-0.3,31.32,SSW,203,9.6,11.4,38,0.00,,,0.00,WUHU216HW,2013-01-15 14:20:00,
2013-01-15 07:25:00,21.2,-0.5,31.32,WSW,248,4.9,11.4,38,0.00,,,0.00,WUHU216HW,2013-01-15 14:25:00,
2013-01-15 07:30:00,21.0,-0.7,31.31,SW,225,14.9,14.9,38,0.00,,,0.00,WUHU216HW,2013-01-15 14:30:00,
2013-01-15 07:35:00,21.0,-0.7,31.32,SSW,203,8.0,14.9,38,0.00,,,0.00,WUHU216HW,2013-01-15 14:35:00,
2013-01-15 07:40:00,21.0,-0.7,31.32,WSW,248,4.2,13.6,38,0.00,,,0.00,WUHU216HW,2013-01-15 14:40:00,
2013-01-15 07:46:00,21.0,-0.7,31.32,South,180,16.5,16.5,38,0.00,,,0.00,WUHU216HW,2013-01-15 14:46:00,
2013-01-15 07:51:00,21.3,-0.9,31.33,WSW,248,6.7,16.5,37,0.00,,,0.00,WUHU216HW,2013-01-15 14:51:00,
2013-01-15 07:56:00,21.3,-0.9,31.33,SW,225,9.3,12.0,37,0.00,,,0.00,WUHU216HW,2013-01-15 14:56:00,
2013-01-15 08:01:00,21.5,-0.8,31.34,WSW,248,10.5,13.4,37,0.00,,,0.00,WUHU216HW,2013-01-15 15:01:00,
2013-01-15 08:06:00,21.7,-0.6,31.34,WSW,248,5.1,13.4,37,0.00,,,0.00,WUHU216HW,2013-01-15 15:06:00,
2013-01-15 08:11:00,22.4,-0.6,31.34,WSW,248,8.5,11.1,36,0.00,,,0.00,WUHU216HW,2013-01-15 15:11:00,
2013-01-15 08:16:00,23.1,-0.5,31.35,WSW,248,8.0,17.2,35,0.00,,,0.00,WUHU216HW,2013-01-15 15:16:00,
2013-01-15 08:21:00,23.7,-0.1,31.35,WSW,248,8.7,17.2,35,0.00,,,0.00,WUHU216HW,2013-01-15 15:21:00,
2013-01-15 08:26:00,24.6,0.0,31.36,WSW,248,10.0,12.0,34,0.00,,,0.00,WUHU216HW,2013-01-15 15:26:00,
2013-01-15 08:31:00,26.0,0.0,31.36,WSW,248,7.3,12.7,32,0.00,,,0.00,WUHU216HW,2013-01-15 15:31:00,
2013-01-15 08:37:00,26.7,0.6,31.36,WSW,248,10.5,15.4,32,0.00,,,0.00,WUHU216HW,2013-01-15 15:37:00,
2013-01-15 08:42:00,27.1,0.3,31.37,WSW,248,9.8,15.4,31,0.00,,,0.00,WUHU216HW,2013-01-15 15:42:00,
2013-01-15 08:47:00,27.5,0.6,31.37,WSW,248,8.7,13.8,31,0.00,,,0.00,WUHU216HW,2013-01-15 15:47:00,
2013-01-15 08:52:00,27.8,1.0,31.37,WSW,248,1.5,15.2,31,0.00,,,0.00,WUHU216HW,2013-01-15 15:52:00,
2013-01-15 08:57:00,28.9,1.3,31.38,WSW,248,20.5,20.5,30,0.00,,,0.00,WUHU216HW,2013-01-15 15:57:00,
2013-01-15 09:02:00,28.5,1.0,31.38,WSW,248,10.0,20.5,30,0.00,,,0.00,WUHU216HW,2013-01-15 16:02:00,
2013-01-15 09:07:00,29.1,1.5,31.37,WSW,248,9.8,18.3,30,0.00,,,0.00,WUHU216HW,2013-01-15 16:07:00,
2013-01-15 09:12:00,29.1,1.5,31.38,WSW,248,8.9,11.6,30,0.00,,,0.00,WUHU216HW,2013-01-15 16:12:00,
2013-01-15 09:17:00,28.9,1.3,31.38,WSW,248,5.3,14.0,30,0.00,,,0.00,WUHU216HW,2013-01-15 16:17:00,
2013-01-15 09:22:00,30.0,1.4,31.38,WSW,248,9.8,14.0,29,0.00,,,0.00,WUHU216HW,2013-01-15 16:22:00,
2013-01-15 09:27:00,30.5,1.9,31.38,WSW,248,8.0,13.1,29,0.00,,,0.00,WUHU216HW,2013-01-15 16:27:00,
2013-01-15 09:32:00,31.2,1.7,31.38,WSW,248,6.9,12.0,28,0.00,,,0.00,WUHU216HW,2013-01-15 16:32:00,
2013-01-15 09:37:00,31.8,2.2,31.38,WSW,248,6.2,10.2,28,0.00,,,0.00,WUHU216HW,2013-01-15 16:37:00,
2013-01-15 09:42:00,32.9,3.1,31.38,WSW,248,6.9,11.1,28,0.00,,,0.00,WUHU216HW,2013-01-15 16:42:00,
2013-01-15 09:47:00,32.7,2.1,31.38,WSW,248,9.6,11.1,27,0.00,,,0.00,WUHU216HW,2013-01-15 16:47:00,
2013-01-15 09:52:00,33.4,2.5,31.38,WSW,248,5.1,11.4,27,0.00,,,0.00,WUHU216HW,2013-01-15 16:52:00,
2013-01-15 09:57:00,33.9,3.2,31.38,WSW,248,7.6,11.4,27,0.00,,,0.00,WUHU216HW,2013-01-15 16:57:00,
2013-01-15 10:02:00,34.5,2.7,31.38,WSW,248,13.6,13.6,26,0.00,,,0.00,WUHU216HW,2013-01-15 17:02:00,
2013-01-15 10:08:00,35.2,3.2,31.38,WSW,248,8.0,13.6,26,0.00,,,0.00,WUHU216HW,2013-01-15 17:08:00,
2013-01-15 10:13:00,36.5,3.5,31.38,WSW,248,12.5,12.5,25,0.00,,,0.00,WUHU216HW,2013-01-15 17:13:00,
2013-01-15 10:18:00,37.2,3.3,31.38,WSW,248,14.5,14.5,24,0.00,,,0.00,WUHU216HW,2013-01-15 17:18:00,
2013-01-15 10:23:00,36.6,3.7,31.38,WSW,248,8.7,14.5,25,0.00,,,0.00,WUHU216HW,2013-01-15 17:23:00,
2013-01-15 10:28:00,37.4,3.4,31.38,WSW,248,8.0,12.7,24,0.00,,,0.00,WUHU216HW,2013-01-15 17:28:00,
2013-01-15 10:33:00,37.4,3.4,31.37,WSW,248,10.9,16.7,24,0.00,,,0.00,WUHU216HW,2013-01-15 17:33:00,
2013-01-15 10:38:00,37.4,4.3,31.37,WSW,248,8.5,16.7,25,0.00,,,0.00,WUHU216HW,2013-01-15 17:38:00,
2013-01-15 10:43:00,37.9,3.9,31.37,WSW,248,7.1,12.5,24,0.00,,,0.00,WUHU216HW,2013-01-15 17:43:00,
2013-01-15 10:48:00,38.8,4.6,31.37,WSW,248,15.4,17.2,24,0.00,,,0.00,WUHU216HW,2013-01-15 17:48:00,
2013-01-15 10:53:00,39.0,4.1,31.38,WSW,248,12.5,19.0,23,0.00,,,0.00,WUHU216HW,2013-01-15 17:53:00,
2013-01-15 10:58:00,39.7,4.5,31.38,WSW,248,8.5,19.0,23,0.00,,,0.00,WUHU216HW,2013-01-15 17:58:00,
2013-01-15 11:03:00,40.2,5.0,31.38,WSW,248,7.1,13.6,23,0.00,,,0.00,WUHU216HW,2013-01-15 18:03:00,
2013-01-15 11:08:00,39.9,4.7,31.38,WSW,248,0.0,13.6,23,0.00,,,0.00,WUHU216HW,2013-01-15 18:08:00,
2013-01-15 11:14:00,40.6,5.5,31.39,WSW,248,6.9,14.0,23,0.00,,,0.00,WUHU216HW,2013-01-15 18:14:00,
2013-01-15 11:19:00,41.5,5.2,31.38,WSW,248,12.3,14.0,22,0.00,,,0.00,WUHU216HW,2013-01-15 18:19:00,
2013-01-15 11:24:00,41.1,4.8,31.38,WSW,248,8.0,14.7,22,0.00,,,0.00,WUHU216HW,2013-01-15 18:24:00,
2013-01-15 11:29:00,40.2,4.1,31.37,WSW,248,8.5,14.7,22,0.00,,,0.00,WUHU216HW,2013-01-15 18:29:00,
2013-01-15 11:34:00,40.1,4.9,31.37,WSW,248,8.9,19.2,23,0.00,,,0.00,WUHU216HW,2013-01-15 18:34:00,
2013-01-15 11:39:00,40.2,5.0,31.37,WSW,248,12.5,21.6,23,0.00,,,0.00,WUHU216HW,2013-01-15 18:39:00,
2013-01-15 11:44:00,39.9,4.7,31.37,SW,225,17.4,21.6,23,0.00,,,0.00,WUHU216HW,2013-01-15 18:44:00,
2013-01-15 11:49:00,40.6,5.0,31.36,WSW,248,9.1,17.4,23,0.00,,,0.00,WUHU216HW,2013-01-15 18:49:00,
2013-01-15 11:54:00,40.6,5.3,31.36,SW,225,7.6,14.3,23,0.00,,,0.00,WUHU216HW,2013-01-15 18:54:00,
2013-01-15 11:59:00,40.8,5.5,31.36,SSW,203,13.6,19.9,23,0.00,,,0.00,WUHU216HW,2013-01-15 18:59:00,
2013-01-15 12:05:00,41.5,5.2,31.36,WSW,248,10.0,19.9,22,0.00,,,0.00,WUHU216HW,2013-01-15 19:05:00,
2013-01-15 12:10:00,42.4,5.9,31.36,SW,225,11.4,14.3,22,0.00,,,0.00,WUHU216HW,2013-01-15 19:10:00,
2013-01-15 12:15:00,42.4,5.9,31.35,WSW,248,7.3,14.3,22,0.00,,,0.00,WUHU216HW,2013-01-15 19:15:00,
2013-01-15 12:20:00,42.9,6.4,31.35,WSW,248,12.7,14.3,22,0.00,,,0.00,WUHU216HW,2013-01-15 19:20:00,
2013-01-15 12:25:00,42.6,6.1,31.34,SW,225,10.5,14.5,22,0.00,,,0.00,WUHU216HW,2013-01-15 19:25:00,
2013-01-15 12:30:00,43.3,6.5,31.34,SSW,203,12.0,13.4,22,0.00,,,0.00,WUHU216HW,2013-01-15 19:30:00,
2013-01-15 12:35:00,43.8,7.2,31.34,WSW,248,8.5,12.0,22,0.00,,,0.00,WUHU216HW,2013-01-15 19:35:00,
2013-01-15 12:40:00,44.7,8.0,31.33,SW,225,13.1,14.0,22,0.00,,,0.00,WUHU216HW,2013-01-15 19:40:00,
2013-01-15 12:45:00,45.5,7.5,31.33,WSW,248,10.0,17.6,21,0.00,,,0.00,WUHU216HW,2013-01-15 19:45:00,
2013-01-15 12:50:00,46.0,8.1,31.33,SW,225,13.1,17.6,21,0.00,,,0.00,WUHU216HW,2013-01-15 19:50:00,
2013-01-15 12:55:00,46.5,8.5,31.33,SW,225,8.9,17.0,21,0.00,,,0.00,WUHU216HW,2013-01-15 19:55:00,
2013-01-15 13:00:00,46.5,8.5,31.33,SW,225,8.0,17.0,21,0.00,,,0.00,WUHU216HW,2013-01-15 20:00:00,
2013-01-15 13:05:00,46.4,8.4,31.33,SW,225,10.7,13.6,21,0.00,,,0.00,WUHU216HW,2013-01-15 20:05:00,
2013-01-15 13:10:00,46.0,8.1,31.32,West,270,10.0,18.3,21,0.00,,,0.00,WUHU216HW,2013-01-15 20:10:00,
2013-01-15 13:16:00,45.5,7.7,31.31,WSW,248,12.9,18.3,21,0.00,,,0.00,WUHU216HW,2013-01-15 20:16:00,
2013-01-15 13:21:00,45.1,8.3,31.32,WSW,248,6.9,15.2,22,0.00,,,0.00,WUHU216HW,2013-01-15 20:21:00,
2013-01-15 13:26:00,46.0,8.1,31.32,SW,225,7.6,15.2,21,0.00,,,0.00,WUHU216HW,2013-01-15 20:26:00,
2013-01-15 13:31:00,46.7,8.7,31.31,SSW,203,8.9,17.0,21,0.00,,,0.00,WUHU216HW,2013-01-15 20:31:00,
2013-01-15 13:36:00,47.3,9.1,31.31,SW,225,10.0,17.0,21,0.00,,,0.00,WUHU216HW,2013-01-15 20:36:00,
2013-01-15 13:41:00,47.8,9.5,31.31,WSW,248,5.1,13.6,21,0.00,,,0.00,WUHU216HW,2013-01-15 20:41:00,
2013-01-15 13:46:00,48.0,9.7,31.31,SW,225,12.3,14.9,21,0.00,,,0.00,WUHU216HW,2013-01-15 20:46:00,
2013-01-15 13:51:00,49.6,11.1,31.31,SSW,203,10.9,14.9,21,0.00,,,0.00,WUHU216HW,2013-01-15 20:51:00,
2013-01-15 13:56:00,51.8,12.0,31.31,SSW,203,6.7,14.0,20,0.00,,,0.00,WUHU216HW,2013-01-15 20:56:00,
2013-01-15 14:01:00,52.1,12.1,31.31,South,180,18.5,18.5,20,0.00,,,0.00,WUHU216HW,2013-01-15 21:01:00,
2013-01-15 14:06:00,52.3,10.9,31.31,South,180,12.5,18.5,19,0.00,,,0.00,WUHU216HW,2013-01-15 21:06:00,
2013-01-15 14:11:00,51.9,12.1,31.31,SSW,203,16.1,22.8,20,0.00,,,0.00,WUHU216HW,2013-01-15 21:11:00,
2013-01-15 14:16:00,50.1,10.7,31.31,South,180,12.3,22.8,20,0.00,,,0.00,WUHU216HW,2013-01-15 21:16:00,
2013-01-15 14:21:00,50.7,12.0,31.31,SW,225,2.6,21.0,21,0.00,,,0.00,WUHU216HW,2013-01-15 21:21:00,
2013-01-15 14:26:00,51.4,11.7,31.31,South,180,14.5,21.0,20,0.00,,,0.00,WUHU216HW,2013-01-15 21:26:00,
2013-01-15 14:31:00,52.1,12.3,31.31,WSW,248,8.5,14.5,20,0.00,,,0.00,WUHU216HW,2013-01-15 21:31:00,
2013-01-15 14:36:00,51.6,10.3,31.31,SW,225,12.7,12.7,19,0.00,,,0.00,WUHU216HW,2013-01-15 21:36:00,
2013-01-15 14:41:00,50.5,11.0,31.31,WSW,248,13.6,13.6,20,0.00,,,0.00,WUHU216HW,2013-01-15 21:41:00,
2013-01-15 14:46:00,49.8,10.2,31.31,WSW,248,6.0,13.6,20,0.00,,,0.00,WUHU216HW,2013-01-15 21:46:00,
2013-01-15 14:52:00,49.4,11.1,31.30,SW,225,5.3,12.5,21,0.00,,,0.00,WUHU216HW,2013-01-15 21:52:00,
2013-01-15 14:57:00,48.9,10.5,31.31,SW,225,11.4,17.4,21,0.00,,,0.00,WUHU216HW,2013-01-15 21:57:00,
2013-01-15 15:02:00,49.1,10.6,31.30,WSW,248,10.9,17.4,21,0.00,,,0.00,WUHU216HW,2013-01-15 22:02:00,
2013-01-15 15:07:00,49.1,10.6,31.30,SW,225,12.0,20.1,21,0.00,,,0.00,WUHU216HW,2013-01-15 22:07:00,
2013-01-15 15:12:00,48.9,10.5,31.30,SSW,203,16.3,20.1,21,0.00,,,0.00,WUHU216HW,2013-01-15 22:12:00,
2013-01-15 15:17:00,49.1,10.6,31.30,SW,225,16.1,17.0,21,0.00,,,0.00,WUHU216HW,2013-01-15 22:17:00,
2013-01-15 15:22:00,49.2,10.8,31.30,WSW,248,7.8,17.0,21,0.00,,,0.00,WUHU216HW,2013-01-15 22:22:00,
2013-01-15 15:27:00,49.1,10.8,31.30,SW,225,14.9,15.4,21,0.00,,,0.00,WUHU216HW,2013-01-15 22:27:00,
2013-01-15 15:32:00,48.9,10.5,31.30,SW,225,13.6,15.6,21,0.00,,,0.00,WUHU216HW,2013-01-15 22:32:00,
2013-01-15 15:37:00,48.5,10.2,31.30,SW,225,11.6,15.6,21,0.00,,,0.00,WUHU216HW,2013-01-15 22:37:00,
2013-01-15 15:42:00,48.7,10.3,31.30,SW,225,16.3,16.3,21,0.00,,,0.00,WUHU216HW,2013-01-15 22:42:00,
2013-01-15 15:47:00,49.1,10.6,31.30,SW,225,13.1,17.6,21,0.00,,,0.00,WUHU216HW,2013-01-15 22:47:00,
2013-01-15 15:52:00,48.7,10.3,31.30,WSW,248,10.7,17.6,21,0.00,,,0.00,WUHU216HW,2013-01-15 22:52:00,
2013-01-15 15:57:00,47.8,9.5,31.30,SW,225,9.6,16.7,21,0.00,,,0.00,WUHU216HW,2013-01-15 22:57:00,
2013-01-15 16:02:00,47.8,9.5,31.30,SW,225,8.9,19.9,21,0.00,,,0.00,WUHU216HW,2013-01-15 23:02:00,
2013-01-15 16:07:00,47.4,10.2,31.30,SW,225,12.5,19.9,22,0.00,,,0.00,WUHU216HW,2013-01-15 23:07:00,
2013-01-15 16:12:00,46.9,9.7,31.30,SSW,203,12.7,18.5,22,0.00,,,0.00,WUHU216HW,2013-01-15 23:12:00,
2013-01-15 16:18:00,47.3,10.0,31.31,SW,225,5.5,18.5,22,0.00,,,0.00,WUHU216HW,2013-01-15 23:18:00,
2013-01-15 16:23:00,47.1,9.9,31.31,SSW,203,12.3,14.0,22,0.00,,,0.00,WUHU216HW,2013-01-15 23:23:00,
2013-01-15 16:28:00,47.4,10.2,31.31,WSW,248,11.1,14.0,22,0.00,,,0.00,WUHU216HW,2013-01-15 23:28:00,
2013-01-15 16:33:00,47.4,10.2,31.31,SW,225,9.1,13.6,22,0.00,,,0.00,WUHU216HW,2013-01-15 23:33:00,
2013-01-15 16:38:00,47.1,9.9,31.31,SW,225,10.9,16.3,22,0.00,,,0.00,WUHU216HW,2013-01-15 23:38:00,
2013-01-15 16:43:00,46.9,9.7,31.31,SW,225,10.9,16.3,22,0.00,,,0.00,WUHU216HW,2013-01-15 23:43:00,
2013-01-15 16:48:00,46.5,10.4,31.31,SW,225,10.0,15.8,23,0.00,,,0.00,WUHU216HW,2013-01-15 23:48:00,
2013-01-15 16:53:00,46.9,10.7,31.31,SW,225,2.9,12.7,23,0.00,,,0.00,WUHU216HW,2013-01-15 23:53:00,
2013-01-15 16:58:00,47.1,10.8,31.32,WSW,248,4.2,16.1,23,0.00,,,0.00,WUHU216HW,2013-01-15 23:58:00,
2013-01-15 17:03:00,47.1,10.8,31.32,WSW,248,0.0,16.1,23,0.00,,,0.00,WUHU216HW,2013-01-16 00:03:00,
2013-01-15 17:08:00,46.7,10.5,31.32,WSW,248,8.2,8.2,23,0.00,,,0.00,WUHU216HW,2013-01-16 00:08:00,
2013-01-15 17:13:00,45.6,9.6,31.32,WSW,248,4.6,8.2,23,0.00,,,0.00,WUHU216HW,2013-01-16 00:13:00,
2013-01-15 17:18:00,44.4,9.5,31.32,WSW,248,8.9,8.9,24,0.00,,,0.00,WUHU216HW,2013-01-16 00:18:00,
2013-01-15 17:23:00,43.5,9.6,31.32,WSW,248,6.2,9.6,25,0.00,,,0.00,WUHU216HW,2013-01-16 00:23:00,
2013-01-15 17:28:00,42.9,9.1,31.31,WSW,248,10.9,10.9,25,0.00,,,0.00,WUHU216HW,2013-01-16 00:28:00,
2013-01-15 17:33:00,42.0,9.2,31.31,WSW,248,7.6,11.1,26,0.00,,,0.00,WUHU216HW,2013-01-16 00:33:00,
2013-01-15 17:38:00,41.1,9.6,31.31,WSW,248,8.5,13.1,27,0.00,,,0.00,WUHU216HW,2013-01-16 00:38:00,
2013-01-15 17:43:00,40.1,8.5,31.31,WSW,248,8.2,14.5,27,0.00,,,0.00,WUHU216HW,2013-01-16 00:43:00,
2013-01-15 17:48:00,38.8,9.1,31.30,WSW,248,13.4,14.5,29,0.00,,,0.00,WUHU216HW,2013-01-16 00:48:00,
2013-01-15 17:53:00,37.9,8.3,31.30,SSW,203,6.2,13.4,29,0.00,,,0.00,WUHU216HW,2013-01-16 00:53:00,
2013-01-15 17:59:00,37.7,9.1,31.29,WSW,248,23.7,23.7,30,0.00,,,0.00,WUHU216HW,2013-01-16 00:59:00,
2013-01-15 18:04:00,37.5,8.9,31.29,WSW,248,15.6,23.7,30,0.00,,,0.00,WUHU216HW,2013-01-16 01:04:00,
2013-01-15 18:09:00,37.2,8.6,31.29,WSW,248,13.1,20.8,30,0.00,,,0.00,WUHU216HW,2013-01-16 01:09:00,
2013-01-15 18:14:00,37.2,8.6,31.30,West,270,9.1,20.8,30,0.00,,,0.00,WUHU216HW,2013-01-16 01:14:00,
2013-01-15 18:19:00,36.8,8.2,31.31,WSW,248,15.4,16.3,30,0.00,,,0.00,WUHU216HW,2013-01-16 01:19:00,
2013-01-15 18:24:00,36.3,8.4,31.31,WSW,248,15.2,19.0,31,0.00,,,0.00,WUHU216HW,2013-01-16 01:24:00,
2013-01-15 18:29:00,35.9,8.1,31.31,WSW,248,11.6,19.0,31,0.00,,,0.00,WUHU216HW,2013-01-16 01:29:00,
2013-01-15 18:34:00,35.6,8.4,31.31,WSW,248,7.8,16.7,32,0.00,,,0.00,WUHU216HW,2013-01-16 01:34:00,
2013-01-15 18:39:00,35.7,8.6,31.31,WSW,248,6.4,16.1,32,0.00,,,0.00,WUHU216HW,2013-01-16 01:39:00,
2013-01-15 18:44:00,35.7,8.6,31.32,SW,225,14.9,16.1,32,0.00,,,0.00,WUHU216HW,2013-01-16 01:44:00,
2013-01-15 18:49:00,35.7,7.9,31.32,SW,225,8.2,14.9,32,0.00,,,0.00,WUHU216HW,2013-01-16 01:49:00,
2013-01-15 18:54:00,35.9,8.7,31.32,WSW,248,11.1,18.3,32,0.00,,,0.00,WUHU216HW,2013-01-16 01:54:00,
2013-01-15 18:59:00,36.1,8.2,31.32,WSW,248,10.2,18.3,31,0.00,,,0.00,WUHU216HW,2013-01-16 01:59:00,
2013-01-15 19:04:00,36.1,8.1,31.32,West,270,11.8,15.8,31,0.00,,,0.00,WUHU216HW,2013-01-16 02:04:00,
2013-01-15 20:10:00,34.8,8.4,31.34,South,180,7.8,7.8,33,0.00,,,0.00,WUHU216HW,2013-01-16 03:10:00,
2013-01-15 20:15:00,34.8,8.4,31.34,SW,225,9.6,9.6,33,0.00,,,0.00,WUHU216HW,2013-01-16 03:15:00,
2013-01-15 20:20:00,34.5,8.2,31.34,SSE,158,7.6,9.6,33,0.00,,,0.00,WUHU216HW,2013-01-16 03:20:00,
2013-01-15 20:25:00,34.3,8.0,31.34,SW,225,9.8,9.8,33,0.00,,,0.00,WUHU216HW,2013-01-16 03:25:00,
2013-01-15 20:30:00,34.3,8.0,31.34,South,180,12.3,12.3,33,0.00,,,0.00,WUHU216HW,2013-01-16 03:30:00,
2013-01-15 20:35:00,34.3,8.6,31.34,South,180,3.8,12.3,34,0.00,,,0.00,WUHU216HW,2013-01-16 03:35:00,
2013-01-15 20:40:00,34.3,8.0,31.35,South,180,8.9,12.7,33,0.00,,,0.00,WUHU216HW,2013-01-16 03:40:00,
2013-01-15 20:45:00,33.9,8.3,31.35,SSW,203,8.0,12.7,34,0.00,,,0.00,WUHU216HW,2013-01-16 03:45:00,
2013-01-15 20:50:00,33.6,8.0,31.35,SSW,203,6.0,11.6,34,0.00,,,0.00,WUHU216HW,2013-01-16 03:50:00,
2013-01-15 20:55:00,33.4,7.9,31.34,South,180,5.3,11.6,34,0.00,,,0.00,WUHU216HW,2013-01-16 03:55:00,
2013-01-15 21:00:00,33.0,8.2,31.35,SSW,203,7.1,9.3,35,0.00,,,0.00,WUHU216HW,2013-01-16 04:00:00,
2013-01-15 21:05:00,32.9,8.0,31.34,South,180,11.4,11.4,35,0.00,,,0.00,WUHU216HW,2013-01-16 04:05:00,
2013-01-15 21:10:00,32.9,8.0,31.35,South,180,8.9,13.1,35,0.00,,,0.00,WUHU216HW,2013-01-16 04:10:00,
2013-01-15 21:15:00,32.7,8.0,31.35,South,180,9.1,13.1,35,0.00,,,0.00,WUHU216HW,2013-01-16 04:15:00,
2013-01-15 21:20:00,33.0,8.2,31.35,SSW,203,11.8,15.4,35,0.00,,,0.00,WUHU216HW,2013-01-16 04:20:00,
2013-01-15 21:25:00,33.0,8.2,31.35,South,180,4.0,15.4,35,0.00,,,0.00,WUHU216HW,2013-01-16 04:25:00,
2013-01-15 21:30:00,32.9,8.0,31.35,SSW,203,10.5,12.0,35,0.00,,,0.00,WUHU216HW,2013-01-16 04:30:00,
2013-01-15 21:35:00,32.9,8.6,31.35,SSW,203,10.9,18.1,36,0.00,,,0.00,WUHU216HW,2013-01-16 04:35:00,
2013-01-15 21:40:00,33.0,8.2,31.35,SW,225,9.6,18.1,35,0.00,,,0.00,WUHU216HW,2013-01-16 04:40:00,
2013-01-15 21:45:00,33.4,9.1,31.35,SW,225,4.6,9.6,36,0.00,,,0.00,WUHU216HW,2013-01-16 04:45:00,
2013-01-15 21:51:00,33.4,8.5,31.35,SW,225,11.4,11.4,35,0.00,,,0.00,WUHU216HW,2013-01-16 04:51:00,
2013-01-15 21:56:00,33.6,8.7,31.34,SSW,203,8.2,11.4,35,0.00,,,0.00,WUHU216HW,2013-01-16 04:56:00,
2013-01-15 22:00:00,33.4,8.5,31.34,SW,225,12.3,12.3,35,0.00,,,0.00,WUHU216HW,2013-01-16 05:00:00,
2013-01-15 22:02:00,33.4,9.1,31.34,SW,225,14.5,14.5,36,0.00,,,0.00,WUHU216HW,2013-01-16 05:02:00,
2013-01-15 22:03:00,33.4,9.1,31.34,SW,225,4.2,14.5,36,0.00,,,0.00,WUHU216HW,2013-01-16 05:03:00,
2013-01-15 22:06:00,33.2,9.1,31.34,WSW,248,10.5,14.5,36,0.00,,,0.00,WUHU216HW,2013-01-16 05:06:00,
2013-01-15 22:11:00,33.0,8.8,31.34,SW,225,15.6,15.6,36,0.00,,,0.00,WUHU216HW,2013-01-16 05:11:00,
2013-01-15 22:16:00,33.0,8.8,31.34,SW,225,10.7,15.6,36,0.00,,,0.00,WUHU216HW,2013-01-16 05:16:00,
2013-01-15 22:21:00,33.0,8.8,31.34,SSW,203,8.7,13.8,36,0.00,,,0.00,WUHU216HW,2013-01-16 05:21:00,
2013-01-15 22:26:00,32.7,8.5,31.34,SW,225,9.3,11.8,36,0.00,,,0.00,WUHU216HW,2013-01-16 05:26:00,
2013-01-15 22:31:00,32.7,8.5,31.35,SW,225,9.8,15.2,36,0.00,,,0.00,WUHU216HW,2013-01-16 05:31:00,
2013-01-15 22:36:00,32.5,8.5,31.34,WSW,248,6.0,15.2,36,0.00,,,0.00,WUHU216HW,2013-01-16 05:36:00,
2013-01-15 22:41:00,32.7,9.1,31.34,SW,225,8.7,14.0,37,0.00,,,0.00,WUHU216HW,2013-01-16 05:41:00,
2013-01-15 22:46:00,32.9,8.6,31.34,SW,225,10.0,14.0,36,0.00,,,0.00,WUHU216HW,2013-01-16 05:46:00,
2013-01-15 22:51:00,32.9,8.6,31.35,WSW,248,10.2,11.6,36,0.00,,,0.00,WUHU216HW,2013-01-16 05:51:00,
2013-01-15 22:56:00,33.0,8.6,31.35,SW,225,14.0,14.0,36,0.00,,,0.00,WUHU216HW,2013-01-16 05:56:00,
2013-01-15 23:01:00,32.9,8.6,31.35,SW,225,9.6,14.0,36,0.00,,,0.00,WUHU216HW,2013-01-16 06:01:00,
2013-01-15 23:07:00,32.9,8.6,31.35,SSW,203,11.4,11.4,36,0.00,,,0.00,WUHU216HW,2013-01-16 06:07:00,
2013-01-15 23:11:00,32.7,8.5,31.35,SSW,203,8.5,12.9,36,0.00,,,0.00,WUHU216HW,2013-01-16 06:11:00,
2013-01-15 23:17:00,32.7,9.1,31.35,SSW,203,8.2,13.4,37,0.00,,,0.00,WUHU216HW,2013-01-16 06:17:00,
2013-01-15 23:22:00,32.9,8.6,31.35,SW,225,15.2,15.2,36,0.00,,,0.00,WUHU216HW,2013-01-16 06:22:00,
2013-01-15 23:27:00,33.2,9.0,31.35,SW,225,13.6,15.2,36,0.00,,,0.00,WUHU216HW,2013-01-16 06:27:00,
2013-01-15 23:32:00,33.6,9.3,31.35,SSW,203,12.0,15.8,36,0.00,,,0.00,WUHU216HW,2013-01-16 06:32:00,
2013-01-15 23:37:00,33.6,9.3,31.36,SSW,203,11.4,16.5,36,0.00,,,0.00,WUHU216HW,2013-01-16 06:37:00,
2013-01-15 23:42:00,33.6,9.3,31.35,SW,225,13.1,16.5,36,0.00,,,0.00,WUHU216HW,2013-01-16 06:42:00,
2013-01-15 23:47:00,33.6,9.3,31.35,SSW,203,7.8,16.3,36,0.00,,,0.00,WUHU216HW,2013-01-16 06:47:00,
2013-01-15 23:52:00,33.6,9.3,31.36,SSW,203,14.5,16.3,36,0.00,,,0.00,WUHU216HW,2013-01-16 06:52:00,
2013-01-15 23:57:00,33.4,9.1,31.36,South,180,12.9,14.5,36,0.00,,,0.00,WUHU216HW,2013-01-16 06:57:00,